sat.trackr.live / text

‹ back to catalog

STARLINK-2123

NORAD 47401 · 2021-005BE

PAYLOAD ACTIVE UNKNOWN

§ Identity

Operator
Country
US
Launch date
2021-01-20
Launch site
AFETR
Launch vehicle
Mass (kg)
RCS (m²)

Purposes: comms

External: N2YO · Heavens-Above · Gunter

§ Orbital elements

Epoch: 2026-05-25T02:45:53.013024Z

Period
94.01 min
Inclination
53.1612°
Eccentricity
0.0001199
Mean motion
15.31716667 rev/d
Perigee alt
469.9 km
Apogee alt
471.5 km
Semi-major
6,848.8 km
B*
3.8427e-5
RAAN
41.5018°
Arg perigee
83.6414°
Mean anomaly
276.4723°
Rev number
29,509

§ Raw data

STARLINK-21231 47401U 21005BE  26145.11519691  .00000828  00000+0  38427-4 0  99902 47401  53.1612  41.5018 0001199  83.6414 276.4723 15.31716667295090

JSON: /api/v1/satellites/47401 · /tle

For live sub-satellite position, see the globe view (requires WebGL).

§ Visibility from observer

Set your observer location to see the next 7 days of passes ≥ 10°. The values pass through the URL so the page stays shareable.

No JS? Fill the form by hand. The geolocation button needs JavaScript.